Location: Mountain_View
(35.6670°N, 81.4000°W)
Time: 03:21:30
(UTC-04:00)

Amateur Radio Satellites - All Passes

Search period start: 22 August 2017 02:51
Search period end: 23 August 2017 02:51
Location: Mountain_View, 35.6670°N, 81.4000°W

Satellite Date Start Highest point End Downlink Frequencies (MHz)
Time Altitude Azimuth
Gurwin Techsat 1B 22 Aug 02:51:30 02:56:34 44° 99° (E) 03:01:36 435.225
50 SAT 22 Aug 02:56:28 02:57:26 11° 267° (W) 02:58:25 437.505
Oscar 19 22 Aug 03:08:28 03:13:41 79° 284° (WNW) 03:18:52 437.125/150
BEESAT 22 Aug 03:10:49 03:14:55 30° 70° (ENE) 03:19:02 436.000
YUBILEINY 22 Aug 03:21:50 03:30:12 49° 78° (ENE) 03:38:30 435.215
ITUPSAT 1 22 Aug 03:45:15 03:49:58 70° 75° (ENE) 03:54:42 437.325
AO-7 22 Aug 03:52:33 03:59:12 26° 96° (E) 04:05:47 .
MOZHAYETS 4 22 Aug 04:21:02 04:25:29 55° 259° (W) 04:29:58
KKS-1 22 Aug 04:26:00 04:27:58 13° 65° (ENE) 04:29:55 437.445
ITAMSAT 1 22 Aug 04:30:48 04:35:39 40° 99° (E) 04:40:28 435.822/435.867
Gurwin Techsat 1B 22 Aug 04:32:18 04:36:09 21° 294° (WNW) 04:40:00 435.225
CUBESAT XI-V 22 Aug 04:44:06 04:48:32 47° 73° (ENE) 04:53:01 437.345
BEESAT 22 Aug 04:48:51 04:52:38 24° 264° (W) 04:56:28 436.000
BEESAT 3 22 Aug 04:53:53 04:57:30 34° 114° (ESE) 05:01:10 437.485
STARS 22 Aug 05:01:11 05:02:56 12° 65° (ENE) 05:04:41 437.465
BEESAT 2 22 Aug 05:11:52 05:14:20 16° 109° (ESE) 05:16:50 435.950
YUBILEINY 22 Aug 05:19:15 05:26:34 32° 275° (W) 05:33:53 435.215
AO-85 22 Aug 05:28:36 05:32:26 50° 116° (ESE) 05:36:14 145.980
AO-7 22 Aug 05:44:11 05:52:20 61° 292° (WNW) 06:00:25 .
KKS-1 22 Aug 05:59:39 06:04:01 54° 260° (W) 06:08:24 437.445
ITAMSAT 1 22 Aug 06:10:57 06:14:49 22° 294° (WNW) 06:18:41 435.822/435.867
CUBESAT XI-V 22 Aug 06:23:35 06:26:06 14° 268° (W) 06:28:39 437.345
BEESAT 3 22 Aug 06:32:18 06:35:09 18° 310° (NW) 06:38:02 437.485
STARS 22 Aug 06:34:27 06:38:46 54° 259° (W) 06:43:05 437.465
LilacSat-2 22 Aug 06:36:21 06:38:51 16° 94° (E) 06:41:19 437.200
XW-2D 22 Aug 06:38:49 06:41:20 17° 94° (E) 06:43:51 145.860 - 145.880
NUDT-PHONESAT 22 Aug 06:40:50 06:42:07 11° 93° (E) 06:43:25 437.300
BEESAT 2 22 Aug 06:48:05 06:51:45 35° 304° (NW) 06:55:30 435.950
XW-2B 22 Aug 06:49:29 06:52:30 22° 96° (E) 06:55:31 145.730 - 145.750
CUTE-I 22 Aug 06:49:44 06:53:48 22° 95° (E) 06:57:49 437.470
DOVE 4 22 Aug 06:50:00 06:54:29 83° 99° (E) 06:58:43 437.250
XW-2C 22 Aug 07:08:08 07:11:46 39° 98° (E) 07:15:22 145.795 - 145.815
AO-85 22 Aug 07:11:19 07:13:06 13° 312° (NW) 07:14:52 145.980
XW-2F 22 Aug 07:19:02 07:22:47 51° 100° (E) 07:26:31 145.980 - 146.000
STRAND 1 22 Aug 07:26:45 07:31:18 34° 70° (ENE) 07:35:52 437.568
PCSat 22 Aug 07:35:18 07:39:34 23° 52° (NE) 07:43:47 145.827
AO-7 22 Aug 07:41:01 07:43:23 11° 311° (NW) 07:45:45 .
KAITUO 1B 22 Aug 07:41:47 07:45:36 84° 102° (ESE) 07:49:23 145.475/437.950
HO-68 22 Aug 07:47:29 07:53:29 28° 96° (E) 07:59:27 435.675
LilacSat-2 22 Aug 08:09:46 08:13:07 28° 288° (WNW) 08:16:28 437.200
CUTE 1.7 + AOD 2 22 Aug 08:11:58 08:15:58 38° 98° (E) 08:19:57 437.475
XW-2D 22 Aug 08:12:13 08:15:30 27° 288° (WNW) 08:18:46 145.860 - 145.880
NUDT-PHONESAT 22 Aug 08:12:39 08:16:07 37° 286° (WNW) 08:19:36 437.300
XW-2B 22 Aug 08:23:37 08:26:32 21° 289° (WNW) 08:29:28 145.730 - 145.750
UWE-3 22 Aug 08:28:16 08:31:02 16° 94° (E) 08:33:49 435.000/436.395/437.385
CUTE-I 22 Aug 08:28:59 08:33:54 40° 290° (WNW) 08:38:48 437.470
SO-50 22 Aug 08:32:22 08:36:54 61° 58° (ENE) 08:41:28 436.795
CUBEBUG 2 22 Aug 08:37:34 08:41:31 37° 98° (E) 08:45:33 437.445
Tancredo 1 22 Aug 08:41:50 08:44:37 45° 135° (SE) 08:47:25 437.200
XW-2C 22 Aug 08:43:56 08:45:33 12° 292° (WNW) 08:47:10 145.795 - 145.815
nSIGHT-1 22 Aug 08:47:21 08:48:32 12° 127° (SE) 08:49:43 .
O/OREOS (USA 219) 22 Aug 08:51:42 08:54:00 14° 99° (E) 08:56:18 437.305
XW-2A 22 Aug 08:51:47 08:55:09 58° 100° (E) 08:58:31 145.665 - 145.685
NO-84 22 Aug 08:52:35 08:55:33 42° 44° (NE) 08:58:43 435.350 FM
SEEDS 22 Aug 08:56:48 09:01:05 82° 101° (ESE) 09:05:19 437.485
ZACube-1 22 Aug 09:04:10 09:07:38 23° 96° (E) 09:11:09 437.345
STRAND 1 22 Aug 09:06:22 09:10:28 24° 264° (W) 09:14:36 437.568
PCSat 22 Aug 09:17:59 09:23:09 46° 249° (WSW) 09:28:16 145.827
AO-73 22 Aug 09:24:03 09:28:01 35° 98° (E) 09:32:03 145.935
HO-68 22 Aug 09:34:32 09:41:20 48° 292° (WNW) 09:48:07 435.675
AAUSAT CUBESAT 2 22 Aug 09:37:54 09:42:04 74° 284° (WNW) 09:46:12 437.432
FO-29 22 Aug 09:40:30 09:47:58 61° 73° (ENE) 09:54:48 435.910
TIGRISAT 22 Aug 09:43:36 09:46:31 18° 68° (ENE) 09:49:25 435.000
CUTE 1.7 + AOD 2 22 Aug 09:48:51 09:51:27 16° 292° (WNW) 09:54:03 437.475
UWE-3 22 Aug 10:03:38 10:07:33 35° 287° (WNW) 10:11:31 435.000/436.395/437.385
Oscar 11 22 Aug 10:07:13 10:11:35 83° 104° (ESE) 10:15:56 .
ISS 22 Aug 10:14:52 10:18:08 69° 319° (NW) 10:21:25 437.550
SO-50 22 Aug 10:15:07 10:16:49 12° 252° (WSW) 10:18:31 436.795
CUBEBUG 2 22 Aug 10:15:17 10:17:49 16° 292° (WNW) 10:20:23 437.445
Tancredo 1 22 Aug 10:18:09 10:19:58 15° 330° (NNW) 10:21:47 437.200
nSIGHT-1 22 Aug 10:21:21 10:24:33 54° 321° (NW) 10:27:46 .
PRISM 22 Aug 10:21:40 10:25:29 36° 72° (ENE) 10:29:19 437.425
O/OREOS (USA 219) 22 Aug 10:28:42 10:32:57 43° 294° (WNW) 10:37:13 437.305
RS-15 22 Aug 10:29:41 10:40:22 38° 105° (ESE) 10:51:10 29.354- 29.394
DELFI C3 22 Aug 10:30:07 10:33:40 30° 97° (E) 10:37:10 145.870
NO-84 22 Aug 10:31:20 10:32:42 12° 235° (SW) 10:34:06 435.350 FM
ZACube-1 22 Aug 10:40:15 10:43:49 26° 289° (WNW) 10:47:27 437.345
UNISAT 6 22 Aug 10:43:51 10:48:13 80° 259° (WSW) 10:52:30 437.425
JUGNU 22 Aug 10:44:38 10:47:34 14° 170° (S) 10:50:30 437.505
EO-88 22 Aug 10:48:49 10:52:03 29° 97° (E) 10:55:16 145.990 - 145.960
AO-73 22 Aug 11:01:06 11:03:58 18° 291° (WNW) 11:06:54 145.935
M-CUBED/EXP-1 PRIME 22 Aug 11:07:33 11:11:06 23° 63° (ENE) 11:14:44 437.505
TIGRISAT 22 Aug 11:19:02 11:22:57 33° 262° (W) 11:26:49 435.000
QB50P2 22 Aug 11:19:34 11:21:02 12° 66° (ENE) 11:22:30 145.880/145.840
EO-79 22 Aug 11:20:24 11:21:13 10° 65° (ENE) 11:22:00 145.935-145.965
FO-29 22 Aug 11:27:23 11:33:09 23° 265° (W) 11:38:38 435.910
Max Valier Satellite 22 Aug 11:31:30 11:35:05 49° 285° (WNW) 11:38:41 145.860
AIST 2D 22 Aug 11:38:13 11:41:27 39° 75° (ENE) 11:44:45 435.315
DUCHIFAT 1 22 Aug 11:46:25 11:49:08 17° 68° (ENE) 11:51:51 145.980
ISS 22 Aug 11:54:00 11:55:08 11° 337° (NNW) 11:56:15 437.550
PRISM 22 Aug 11:58:26 12:00:51 15° 266° (W) 12:03:16 437.425
DELFI C3 22 Aug 12:05:39 12:08:09 16° 291° (WNW) 12:10:37 145.870
LO-87 22 Aug 12:13:25 12:16:47 40° 99° (E) 12:20:07 145.935 - 145.965
EO-88 22 Aug 12:23:21 12:25:25 15° 291° (WNW) 12:27:30 145.990 - 145.960
NANOSAT C BR1 22 Aug 12:30:40 12:34:48 67° 76° (ENE) 12:38:58 145.865
JUGNU 22 Aug 12:32:08 12:35:49 17° 181° (S) 12:39:28 437.505
POLYITAN 1 22 Aug 12:36:52 12:41:03 89° 257° (WSW) 12:45:16 437.675
RS-15 22 Aug 12:40:12 12:52:14 61° 305° (NW) 13:04:28 29.354- 29.394
M-CUBED/EXP-1 PRIME 22 Aug 12:41:14 12:45:14 33° 259° (WSW) 12:49:25 437.505
Oscar 19 22 Aug 12:46:46 12:48:45 12° 62° (ENE) 12:50:43 437.125/150
SRMSAT 22 Aug 12:48:39 12:50:03 11° 166° (SSE) 12:51:27 437.500
QB50P2 22 Aug 12:52:15 12:56:20 51° 260° (W) 13:00:27 145.880/145.840
EO-79 22 Aug 12:52:18 12:56:25 57° 259° (W) 13:00:34 145.935-145.965
SPROUT 22 Aug 12:54:34 12:57:23 17° 94° (E) 13:00:11 437.525
ESTCUBE 1 22 Aug 12:58:16 13:02:49 89° 107° (ESE) 13:07:21 437.505/2401.250
VELOX 1 22 Aug 12:59:23 13:02:00 15° 94° (E) 13:04:35 145.980
BUGSAT 1 22 Aug 13:14:03 13:17:59 47° 74° (ENE) 13:21:53 437.445
DUCHIFAT 1 22 Aug 13:20:45 13:24:30 33° 262° (W) 13:28:17 145.980
AO-85 22 Aug 14:02:05 14:05:29 22° 52° (NE) 14:09:02 145.980
UKube-1 22 Aug 14:06:48 14:09:15 15° 94° (E) 14:11:42 .
Gurwin Techsat 1B 22 Aug 14:09:34 14:14:42 53° 73° (ENE) 14:19:53 435.225
50 SAT 22 Aug 14:18:03 14:21:19 45° 100° (E) 14:24:32 437.505
JUGNU 22 Aug 14:21:26 14:24:02 13° 191° (S) 14:26:39 437.505
Oscar 19 22 Aug 14:22:15 14:27:22 74° 257° (WSW) 14:32:34 437.125/150
SPROUT 22 Aug 14:29:31 14:33:19 32° 288° (WNW) 14:37:06 437.525
DX 1 22 Aug 14:30:30 14:34:41 46° 100° (E) 14:38:50 434.975-435.025
VELOX 1 22 Aug 14:34:27 14:38:34 39° 288° (WNW) 14:42:39 145.980
SRMSAT 22 Aug 14:34:54 14:38:26 16° 176° (S) 14:41:57 437.500
AO-7 22 Aug 14:48:35 14:55:29 30° 60° (ENE) 15:02:23 .
BEESAT 3 22 Aug 14:50:14 14:54:13 76° 243° (WSW) 14:58:06 437.485
BUGSAT 1 22 Aug 14:52:29 14:53:33 11° 268° (W) 14:54:35 437.445
RS-15 22 Aug 14:59:30 15:08:04 21° 333° (NNW) 15:16:38 29.354- 29.394
Tancredo 1 22 Aug 15:07:22 15:09:11 15° 30° (NNE) 15:10:58 437.200
BEESAT 2 22 Aug 15:07:58 15:11:55 49° 58° (ENE) 15:15:47 435.950
UKube-1 22 Aug 15:41:23 15:45:24 39° 288° (WNW) 15:49:24 .
AO-85 22 Aug 15:41:50 15:45:55 36° 246° (WSW) 15:50:17 145.980
ITAMSAT 1 22 Aug 15:45:47 15:50:43 46° 72° (ENE) 15:55:41 435.822/435.867
ITUPSAT 1 22 Aug 15:49:18 15:53:01 22° 96° (E) 15:56:42 437.325
Gurwin Techsat 1B 22 Aug 15:51:41 15:54:55 16° 267° (W) 15:58:10 435.225
DX 1 22 Aug 16:08:13 16:10:25 14° 295° (WNW) 16:12:38 434.975-435.025
YUBILEINY 22 Aug 16:18:30 16:27:07 62° 91° (E) 16:35:42 435.215
MOZHAYETS 4 22 Aug 16:18:48 16:23:10 41° 98° (E) 16:27:32
SRMSAT 22 Aug 16:23:30 16:26:49 15° 187° (S) 16:30:08 437.500
AO-7 22 Aug 16:39:32 16:47:43 58° 257° (WSW) 16:55:57 .
Tancredo 1 22 Aug 16:41:44 16:44:31 44° 226° (SW) 16:47:16 437.200
CUBESAT XI-V 22 Aug 16:44:53 16:47:31 15° 92° (E) 16:50:09 437.345
ISS 22 Aug 16:45:12 16:48:14 35° 36° (NE) 16:51:15 437.550
BEESAT 2 22 Aug 16:47:48 16:49:10 11° 252° (WSW) 16:50:31 435.950
BEESAT 22 Aug 16:50:33 16:55:20 77° 283° (WNW) 17:00:04 436.000
nSIGHT-1 22 Aug 16:51:09 16:54:15 42° 38° (NE) 16:57:21 .
RS-15 22 Aug 17:21:14 17:27:43 15° 11° (N) 17:34:05 29.354- 29.394
ITUPSAT 1 22 Aug 17:26:35 17:30:50 32° 290° (WNW) 17:35:04 437.325
ITAMSAT 1 22 Aug 17:26:52 17:30:21 18° 266° (W) 17:33:53 435.822/435.867
XW-2C 22 Aug 17:48:10 17:49:54 13° 68° (ENE) 17:51:38 145.795 - 145.815
DOVE 4 22 Aug 17:51:01 17:56:13 61° 75° (ENE) 18:01:20 437.250
KKS-1 22 Aug 17:53:32 17:57:33 34° 98° (E) 18:01:34 437.445
MOZHAYETS 4 22 Aug 17:56:59 17:59:58 17° 293° (WNW) 18:02:56
XW-2F 22 Aug 17:58:03 18:00:24 16° 69° (ENE) 18:02:45 145.980 - 146.000
CUTE-I 22 Aug 18:08:33 18:13:03 28° 68° (ENE) 18:17:32 437.470
HO-68 22 Aug 18:15:17 18:19:20 16° 58° (ENE) 18:23:24 435.675
YUBILEINY 22 Aug 18:17:31 18:24:26 25° 290° (WNW) 18:31:21 435.215
KAITUO 1B 22 Aug 18:19:14 18:22:13 23° 71° (ENE) 18:25:12 145.475/437.950
CUBESAT XI-V 22 Aug 18:20:34 18:25:05 47° 287° (WNW) 18:29:34 437.345
ISS 22 Aug 18:22:11 18:24:31 18° 231° (SW) 18:26:49 437.550
STARS 22 Aug 18:26:46 18:30:40 31° 98° (E) 18:34:32 437.465
nSIGHT-1 22 Aug 18:28:29 18:30:20 14° 232° (SW) 18:32:11 .
LilacSat-2 22 Aug 18:47:51 18:51:36 87° 78° (ENE) 18:55:26 437.200
NUDT-PHONESAT 22 Aug 18:48:20 18:51:54 55° 76° (ENE) 18:55:31 437.300
XW-2D 22 Aug 18:49:36 18:53:21 89° 92° (E) 18:57:08 145.860 - 145.880
XW-2B 22 Aug 19:00:46 19:04:29 67° 260° (W) 19:08:14 145.730 - 145.750
CUTE 1.7 + AOD 2 22 Aug 19:02:22 19:05:21 19° 69° (ENE) 19:08:21 437.475
O/OREOS (USA 219) 22 Aug 19:03:01 19:06:12 18° 60° (ENE) 19:09:24 437.305
XW-2C 22 Aug 19:20:17 19:23:43 35° 262° (W) 19:27:12 145.795 - 145.815
XW-2A 22 Aug 19:22:04 19:23:17 12° 69° (ENE) 19:24:29 145.665 - 145.685
KKS-1 22 Aug 19:30:46 19:33:50 19° 293° (WNW) 19:36:54 437.445
XW-2F 22 Aug 19:31:04 19:34:16 27° 263° (W) 19:37:30 145.980 - 146.000
DOVE 4 22 Aug 19:31:27 19:34:09 14° 268° (W) 19:36:51 437.250
CUBEBUG 2 22 Aug 19:33:22 19:36:39 22° 70° (ENE) 19:39:52 437.445
RS-15 22 Aug 19:34:27 19:45:24 37° 44° (NE) 19:55:47 29.354- 29.394
STRAND 1 22 Aug 19:41:30 19:44:07 14° 92° (E) 19:46:45 437.568
SEEDS 22 Aug 19:45:21 19:49:12 36° 73° (ENE) 19:53:06 437.485
CUTE-I 22 Aug 19:48:11 19:52:56 32° 263° (W) 19:57:42 437.470
KAITUO 1B 22 Aug 19:53:32 19:56:08 18° 265° (W) 19:58:44 145.475/437.950
ZACube-1 22 Aug 19:58:56 20:00:36 12° 66° (ENE) 20:02:16 437.345
HO-68 22 Aug 19:58:57 20:06:07 87° 254° (WSW) 20:13:19 435.675
STARS 22 Aug 20:03:38 20:06:45 19° 292° (WNW) 20:09:52 437.465
AO-73 22 Aug 20:17:37 20:20:26 18° 69° (ENE) 20:23:15 145.935
AAUSAT CUBESAT 2 22 Aug 20:24:38 20:28:36 46° 74° (ENE) 20:32:37 437.432
CUTE 1.7 + AOD 2 22 Aug 20:37:12 20:40:56 30° 263° (W) 20:44:42 437.475
O/OREOS (USA 219) 22 Aug 20:41:31 20:45:43 37° 256° (WSW) 20:49:55 437.305
XW-2A 22 Aug 20:52:47 20:55:42 28° 263° (W) 20:58:38 145.665 - 145.685
UWE-3 22 Aug 20:57:11 21:01:21 64° 259° (W) 21:05:29 435.000/436.395/437.385
Oscar 11 22 Aug 20:58:53 21:02:55 41° 73° (ENE) 21:06:59 .
CUBEBUG 2 22 Aug 21:09:33 21:13:07 25° 264° (W) 21:16:38 437.445
DELFI C3 22 Aug 21:14:05 21:15:52 13° 67° (ENE) 21:17:39 145.870
STRAND 1 22 Aug 21:18:37 21:23:36 57° 287° (WNW) 21:28:35 437.568
SEEDS 22 Aug 21:22:30 21:24:59 15° 267° (W) 21:27:28 437.485
ZACube-1 22 Aug 21:32:28 21:36:27 46° 261° (W) 21:40:26 437.345
RS-15 22 Aug 21:46:53 21:58:36 66° 247° (WSW) 22:09:41 29.354- 29.394
HO-68 22 Aug 21:51:57 21:54:38 12° 270° (W) 21:57:19 435.675
AO-73 22 Aug 21:52:49 21:56:26 29° 263° (W) 22:00:04 145.935
AAUSAT CUBESAT 2 22 Aug 22:02:45 22:04:16 12° 268° (W) 22:05:47 437.432
Max Valier Satellite 22 Aug 22:07:10 22:10:35 40° 74° (ENE) 22:14:02 145.860
PCSat 22 Aug 22:13:35 22:18:26 35° 109° (ESE) 22:23:19 145.827
Oscar 11 22 Aug 22:36:58 22:39:12 14° 268° (W) 22:41:26 .
UNISAT 6 22 Aug 22:38:32 22:42:10 25° 96° (E) 22:45:50 437.425
FO-29 22 Aug 22:39:08 22:44:31 62° 101° (E) 22:49:37 435.910
SO-50 22 Aug 22:43:53 22:48:04 38° 114° (ESE) 22:52:15 436.795
DELFI C3 22 Aug 22:46:26 22:50:12 41° 261° (W) 22:54:01 145.870
LO-87 22 Aug 22:48:37 22:49:46 11° 68° (ENE) 22:50:56 145.935 - 145.965
EO-88 22 Aug 22:56:26 22:59:57 51° 260° (W) 23:03:31 145.990 - 145.960
TIGRISAT 22 Aug 23:12:29 23:16:46 59° 101° (E) 23:21:08 435.000
PRISM 22 Aug 23:40:28 23:44:36 89° 281° (WNW) 23:48:41 437.425
ESTCUBE 1 22 Aug 23:54:30 23:58:53 55° 74° (ENE) 00:03:20 437.505/2401.250
VELOX 1 22 Aug 23:55:51 23:56:35 10° 64° (ENE) 23:57:18 145.980
PCSat 22 Aug 23:57:09 00:01:49 29° 305° (NW) 00:06:31 145.827
RS-15 23 Aug 00:07:03 00:08:27 10° 266° (W) 00:09:51 29.354- 29.394
NO-84 23 Aug 00:08:08 00:10:03 16° 126° (SE) 00:11:55 435.350 FM
UNISAT 6 23 Aug 00:15:16 00:18:45 24° 290° (WNW) 00:22:15 437.425
NANOSAT C BR1 23 Aug 00:19:25 00:21:25 13° 93° (E) 00:23:25 145.865
LO-87 23 Aug 00:19:30 00:22:49 36° 262° (W) 00:26:10 145.935 - 145.965
M-CUBED/EXP-1 PRIME 23 Aug 00:23:17 00:26:33 22° 99° (E) 00:29:38 437.505
SO-50 23 Aug 00:25:12 00:28:37 21° 310° (NW) 00:32:02 436.795
POLYITAN 1 23 Aug 00:25:25 00:28:18 18° 95° (E) 00:31:12 437.675
FO-29 23 Aug 00:26:18 00:28:56 14° 299° (WNW) 00:31:31 435.910
AIST 2D 23 Aug 00:38:38 00:42:12 78° 101° (E) 00:45:45 435.315
QB50P2 23 Aug 00:40:01 00:43:44 30° 97° (E) 00:47:27 145.880/145.840
EO-79 23 Aug 00:40:01 00:43:36 27° 97° (E) 00:47:09 145.935-145.965
50 SAT 23 Aug 00:48:26 00:49:11 11° 67° (ENE) 00:49:57 437.505
TIGRISAT 23 Aug 00:51:47 00:52:56 11° 295° (WNW) 00:54:06 435.000
DUCHIFAT 1 23 Aug 01:07:00 01:11:00 44° 99° (E) 01:15:00 145.980
SPROUT 23 Aug 01:19:03 01:23:16 65° 259° (W) 01:27:30 437.525
DX 1 23 Aug 01:23:14 01:26:57 28° 70° (ENE) 01:30:41 434.975-435.025
VELOX 1 23 Aug 01:27:59 01:32:24 67° 258° (WSW) 01:36:51 145.980
ESTCUBE 1 23 Aug 01:34:33 01:35:59 11° 268° (W) 01:37:26 437.505/2401.250
NO-84 23 Aug 01:44:42 01:47:15 26° 319° (NW) 01:49:44 435.350 FM
NANOSAT C BR1 23 Aug 01:53:20 01:57:17 41° 287° (WNW) 02:01:14 145.865
M-CUBED/EXP-1 PRIME 23 Aug 01:57:23 02:00:54 26° 296° (WNW) 02:04:12 437.505
POLYITAN 1 23 Aug 02:00:23 02:04:06 31° 288° (WNW) 02:07:50 437.675
EO-79 23 Aug 02:16:00 02:19:10 21° 291° (WNW) 02:22:21 145.935-145.965
QB50P2 23 Aug 02:16:17 02:19:17 19° 291° (WNW) 02:22:17 145.880/145.840
50 SAT 23 Aug 02:18:20 02:21:28 34° 261° (W) 02:24:37 437.505
Gurwin Techsat 1B 23 Aug 02:29:13 02:33:39 26° 96° (E) 02:38:03 435.225
UKube-1 23 Aug 02:32:11 02:36:28 70° 257° (WSW) 02:40:49 .
YUBILEINY 23 Aug 02:33:13 02:40:10 26° 71° (ENE) 02:47:03 435.215
BUGSAT 1 23 Aug 02:33:28 02:37:27 63° 284° (WNW) 02:41:26 437.445
Oscar 19 23 Aug 02:36:48 02:41:51 50° 100° (E) 02:46:52 437.125/150
DUCHIFAT 1 23 Aug 02:44:15 02:46:14 13° 294° (WNW) 02:48:15 145.980
